Powrót do katalogu

STARLINK-6205

AktywnyŁącznośćVLEO
NORAD 56898·PAYLOAD·🇺🇸 United States

Wystrzelony Jun 12, 2023 z Cape Canaveral Space Force Station

Loading…

Następne Przeloty (najbliższe 24 godziny)

TLE

ŚwieżeSource: CelesTrak SupGP

Epoka: Sep 14, 2026, 21:59 UTC

1 56898C 23083Y   26257.91645833 -.00010935  00000+0 -39620-3 0  2572
2 56898  43.0003  93.3838 0001627 263.7639 224.1923 15.27571224    14

Śledź STARLINK-6205 w czasie rzeczywistym z AllMySat

Download on the App Store